Tracking 29932 objects as of 3-Dec-2024
HD Live streaming from Space Station
objects crossing your sky now

STARLINK-5394

Track STARLINK-5394 now!
10-day predictions
STARLINK-5394 is classified as:


NORAD ID: 54830
Int'l Code: 2022-177L
Perigee: 565.2 km
Apogee: 567.2 km
Inclination: 43.0 °
Period: 95.8 minutes
Semi major axis: 6937 km
RCS: Unknown
Launch date: December 28, 2022
Source: United States (US)
Launch site: AIR FORCE EASTERN TEST RANGE (AFETR)
Your satellite tracking list
Your tracking list is empty




NASA's NSSDC Master Catalog

Two Line Element Set (TLE):
1 54830U 22177L   24337.71283031  .00001182  00000-0  10254-3 0  9990
2 54830  43.0049 123.4466 0001473 282.7160  77.3518 15.02536999107467
Source of the keplerian elements: AFSPC